NOZ58R ENBR-LIRF

Flight info

Callsign NOZ58R
Flight time 3h 2m
Altitude 37000
Route TUXIL DCT ZOL DCT ATTUS DCT NOMKA DCT EXITI DCT BERAS M736 LIZUM N503 LIKDA DCT BAKOR DCT GAVRA DCT RITEB
Aircraft B738/M-SDE2E3GHIJ1LRWXY/LB1

Departure

Time 2026-05-06 08:15
Airport Bergen Airport, Flesland (ENBR)

Arrival

Time 2026-05-06 11:17
Airport Rome–Fiumicino Leonardo da Vinci International Airport (LIRF)
Time Latitude Longitude Altitude Speed Heading
2026-05-06 07:25 60.28890 5.22537 175 ft 0 kts 80°
2026-05-06 08:05 60.28889 5.22522 174 ft 2 kts 80°
2026-05-06 08:06 60.28887 5.22503 174 ft 2 kts 79°
2026-05-06 08:06 60.28882 5.22475 173 ft 2 kts 56°
2026-05-06 08:06 60.28872 5.22452 173 ft 2 kts 39°
2026-05-06 08:06 60.28860 5.22436 172 ft 2 kts 21°
2026-05-06 08:07 60.28845 5.22428 172 ft 2 kts
2026-05-06 08:07 60.28835 5.22428 172 ft 0 kts 352°
2026-05-06 08:07 60.28829 5.22431 172 ft 0 kts 349°
2026-05-06 08:09 60.28833 5.22429 172 ft 3 kts 350°
2026-05-06 08:09 60.28887 5.22411 172 ft 9 kts 351°
2026-05-06 08:10 60.28925 5.22366 171 ft 6 kts 290°
2026-05-06 08:10 60.28948 5.22271 169 ft 8 kts 328°
2026-05-06 08:10 60.29008 5.22248 168 ft 8 kts 351°
2026-05-06 08:10 60.29084 5.22222 166 ft 15 kts 350°
2026-05-06 08:11 60.29218 5.22178 163 ft 21 kts 351°
2026-05-06 08:11 60.29369 5.22128 158 ft 22 kts 350°
2026-05-06 08:11 60.29524 5.22075 154 ft 23 kts 350°
2026-05-06 08:11 60.29689 5.22018 150 ft 24 kts 350°
2026-05-06 08:12 60.29853 5.21964 153 ft 23 kts 350°
2026-05-06 08:12 60.30009 5.21913 153 ft 22 kts 350°
2026-05-06 08:12 60.30150 5.21865 159 ft 19 kts 350°
2026-05-06 08:12 60.30271 5.21824 164 ft 15 kts 350°
2026-05-06 08:13 60.30368 5.21790 168 ft 14 kts 350°
2026-05-06 08:13 60.30439 5.21732 171 ft 9 kts 294°
2026-05-06 08:13 60.30435 5.21603 170 ft 10 kts 259°
2026-05-06 08:13 60.30400 5.21471 165 ft 12 kts 198°
2026-05-06 08:14 60.30341 5.21479 163 ft 0 kts 170°
2026-05-06 08:14 60.30302 5.21492 162 ft 25 kts 170°
2026-05-06 08:14 60.29877 5.21634 148 ft 95 kts 170°
2026-05-06 08:15 60.29039 5.21918 163 ft 147 kts 170°
2026-05-06 08:15 60.27931 5.22295 487 ft 165 kts 171°
2026-05-06 08:15 60.26824 5.22640 1171 ft 167 kts 172°
2026-05-06 08:15 60.25654 5.23015 1741 ft 174 kts 171°
2026-05-06 08:16 60.24449 5.23423 2246 ft 181 kts 172°
2026-05-06 08:16 60.23182 5.23840 2720 ft 190 kts 172°
2026-05-06 08:16 60.21833 5.24285 3025 ft 208 kts 172°
2026-05-06 08:16 60.20327 5.24774 3419 ft 225 kts 172°
2026-05-06 08:17 60.18778 5.25282 3943 ft 237 kts 171°
2026-05-06 08:17 60.17086 5.25868 4418 ft 250 kts 172°
2026-05-06 08:17 60.15377 5.26442 5039 ft 258 kts 171°
2026-05-06 08:17 60.13527 5.27070 5429 ft 276 kts 171°
2026-05-06 08:18 60.11657 5.27699 6191 ft 277 kts 171°
2026-05-06 08:18 60.09769 5.28329 7049 ft 276 kts 172°
2026-05-06 08:18 60.07869 5.28910 7784 ft 279 kts 173°
2026-05-06 08:18 60.05933 5.29428 8495 ft 281 kts 174°
2026-05-06 08:19 60.04002 5.29925 9206 ft 284 kts 174°
2026-05-06 08:19 60.02037 5.30434 9922 ft 286 kts 174°
2026-05-06 08:19 60.00041 5.30959 10502 ft 294 kts 175°
2026-05-06 08:19 59.97958 5.31509 10840 ft 310 kts 175°
2026-05-06 08:20 59.95774 5.32088 11190 ft 325 kts 175°
2026-05-06 08:20 59.93492 5.32695 11650 ft 335 kts 175°
2026-05-06 08:20 59.91187 5.33312 12275 ft 341 kts 176°
2026-05-06 08:20 59.88827 5.33945 12985 ft 344 kts 177°
2026-05-06 08:21 59.86428 5.34586 13664 ft 348 kts 178°
2026-05-06 08:21 59.84033 5.35224 14357 ft 352 kts 178°
2026-05-06 08:21 59.81594 5.35871 15102 ft 355 kts 179°
2026-05-06 08:21 59.79158 5.36496 15854 ft 356 kts 180°
2026-05-06 08:22 59.76708 5.36983 16580 ft 357 kts 182°
2026-05-06 08:22 59.74221 5.37378 17277 ft 360 kts 183°
2026-05-06 08:22 59.71758 5.37737 17938 ft 362 kts 184°
2026-05-06 08:22 59.69233 5.38112 18636 ft 365 kts 184°
2026-05-06 08:23 59.66714 5.38497 19273 ft 368 kts 184°
2026-05-06 08:23 59.64167 5.38905 19868 ft 372 kts 183°
2026-05-06 08:23 59.61585 5.39446 20545 ft 375 kts 181°
2026-05-06 08:23 59.59007 5.40091 21142 ft 379 kts 181°
2026-05-06 08:24 59.56375 5.40791 21799 ft 380 kts 181°
2026-05-06 08:24 59.53787 5.41484 22376 ft 382 kts 181°
2026-05-06 08:24 59.51138 5.42186 22956 ft 385 kts 181°
2026-05-06 08:24 59.48490 5.42876 23467 ft 388 kts 181°
2026-05-06 08:25 59.45826 5.43565 24085 ft 388 kts 181°
2026-05-06 08:25 59.43175 5.44244 24575 ft 391 kts 181°
2026-05-06 08:25 59.40427 5.44941 25031 ft 395 kts 181°
2026-05-06 08:25 59.37687 5.45735 25589 ft 398 kts 179°
2026-05-06 08:26 59.34954 5.46687 26109 ft 401 kts 178°
2026-05-06 08:26 59.32213 5.47717 26601 ft 403 kts 177°
2026-05-06 08:26 59.29471 5.48767 27092 ft 404 kts 177°
2026-05-06 08:26 59.26714 5.49817 27507 ft 407 kts 177°
2026-05-06 08:27 59.23939 5.50859 27967 ft 408 kts 177°
2026-05-06 08:27 59.21148 5.51894 28339 ft 412 kts 177°
2026-05-06 08:27 59.18322 5.52935 28795 ft 413 kts 177°
2026-05-06 08:27 59.15510 5.53958 29141 ft 417 kts 177°
2026-05-06 08:28 59.12644 5.54997 29637 ft 416 kts 177°
2026-05-06 08:28 59.09842 5.56013 30071 ft 417 kts 177°
2026-05-06 08:28 59.06981 5.57044 30444 ft 420 kts 177°
2026-05-06 08:28 59.04082 5.58083 30799 ft 423 kts 177°
2026-05-06 08:29 59.01224 5.59109 31394 ft 418 kts 177°
2026-05-06 08:29 58.98381 5.60135 31919 ft 416 kts 177°
2026-05-06 08:29 58.95545 5.61152 32306 ft 416 kts 177°
2026-05-06 08:29 58.92709 5.62164 32714 ft 415 kts 177°
2026-05-06 08:30 58.89888 5.63246 33017 ft 418 kts 175°
2026-05-06 08:30 58.87095 5.64685 33325 ft 423 kts 169°
2026-05-06 08:30 58.84316 5.66629 33679 ft 426 kts 167°
2026-05-06 08:30 58.81595 5.68835 34063 ft 426 kts 165°
2026-05-06 08:31 58.78909 5.71186 34383 ft 426 kts 163°
2026-05-06 08:31 58.76231 5.73623 34649 ft 427 kts 163°
2026-05-06 08:31 58.73550 5.76084 34870 ft 428 kts 163°
2026-05-06 08:31 58.70882 5.78520 35092 ft 428 kts 163°
2026-05-06 08:32 58.68180 5.80963 35324 ft 428 kts 163°
2026-05-06 08:32 58.65516 5.83346 35524 ft 428 kts 163°
2026-05-06 08:32 58.62798 5.85758 35747 ft 428 kts 162°
2026-05-06 08:32 58.60126 5.88113 35900 ft 429 kts 162°
2026-05-06 08:33 58.57383 5.90518 36087 ft 430 kts 162°
2026-05-06 08:33 58.54690 5.92871 36248 ft 430 kts 162°
2026-05-06 08:33 58.51980 5.95233 36441 ft 431 kts 162°
2026-05-06 08:33 58.49259 5.97599 36648 ft 430 kts 162°
2026-05-06 08:34 58.46543 5.99955 36753 ft 433 kts 162°
2026-05-06 08:34 58.41058 6.04699 36998 ft 436 kts 162°
2026-05-06 08:35 58.35549 6.09451 37004 ft 433 kts 162°
2026-05-06 08:35 58.30105 6.14136 37006 ft 432 kts 162°
2026-05-06 08:36 58.24648 6.18809 36996 ft 431 kts 162°
2026-05-06 08:36 58.19224 6.23440 36989 ft 431 kts 162°
2026-05-06 08:37 58.13773 6.28072 36990 ft 431 kts 162°
2026-05-06 08:37 58.08357 6.32665 36994 ft 430 kts 162°
2026-05-06 08:38 58.02907 6.37268 36987 ft 430 kts 162°
2026-05-06 08:38 57.97451 6.41862 36974 ft 430 kts 162°
2026-05-06 08:39 57.92027 6.46416 36979 ft 429 kts 162°
2026-05-06 08:39 57.86568 6.50980 36985 ft 429 kts 162°
2026-05-06 08:40 57.81147 6.55500 36981 ft 427 kts 162°
2026-05-06 08:40 57.75763 6.59972 36982 ft 428 kts 161°
2026-05-06 08:41 57.70324 6.64477 36985 ft 427 kts 162°
2026-05-06 08:41 57.64902 6.68952 36990 ft 426 kts 162°
2026-05-06 08:42 57.59521 6.73380 36982 ft 425 kts 162°
2026-05-06 08:42 57.54124 6.77804 36988 ft 426 kts 162°
2026-05-06 08:43 57.48692 6.82242 36982 ft 426 kts 162°
2026-05-06 08:43 57.43298 6.86637 36988 ft 424 kts 162°
2026-05-06 08:44 57.37930 6.90998 36980 ft 424 kts 162°
2026-05-06 08:44 57.32537 6.95365 36985 ft 424 kts 162°
2026-05-06 08:45 57.27181 6.99687 36988 ft 423 kts 162°
2026-05-06 08:45 57.21812 7.04004 36988 ft 423 kts 162°
2026-05-06 08:46 57.16422 7.08321 36988 ft 422 kts 162°
2026-05-06 08:46 57.11079 7.12592 36981 ft 422 kts 162°
2026-05-06 08:47 57.05709 7.16869 36978 ft 423 kts 162°
2026-05-06 08:47 57.00304 7.21161 36977 ft 422 kts 162°
2026-05-06 08:47 56.97619 7.23289 36633 ft 421 kts 162°
2026-05-06 08:48 56.94962 7.25394 36832 ft 417 kts 162°
2026-05-06 08:48 56.92329 7.27475 36960 ft 419 kts 162°
2026-05-06 08:48 56.89633 7.29596 37189 ft 425 kts 162°
2026-05-06 08:48 56.86924 7.31722 37027 ft 425 kts 162°
2026-05-06 08:49 56.84251 7.33826 36971 ft 418 kts 162°
2026-05-06 08:49 56.78938 7.38000 36978 ft 419 kts 162°
2026-05-06 08:50 56.73571 7.42188 36970 ft 420 kts 162°
2026-05-06 08:50 56.68240 7.46345 36971 ft 418 kts 162°
2026-05-06 08:51 56.62891 7.50501 36966 ft 419 kts 162°
2026-05-06 08:51 56.57533 7.54650 36973 ft 419 kts 162°
2026-05-06 08:52 56.52189 7.58773 36969 ft 418 kts 161°
2026-05-06 08:52 56.46893 7.62851 36966 ft 418 kts 162°
2026-05-06 08:53 56.41562 7.66941 36967 ft 417 kts 162°
2026-05-06 08:53 56.36216 7.71032 36959 ft 416 kts 162°
2026-05-06 08:53 56.33555 7.73063 36680 ft 414 kts 162°
2026-05-06 08:54 56.30953 7.75048 36907 ft 413 kts 162°
2026-05-06 08:54 56.25615 7.79102 36951 ft 420 kts 162°
2026-05-06 08:54 56.22917 7.81144 37191 ft 423 kts 162°
2026-05-06 08:55 56.20219 7.83187 37004 ft 419 kts 162°
2026-05-06 08:55 56.14938 7.87193 36674 ft 408 kts 162°
2026-05-06 08:55 56.12345 7.89151 36900 ft 406 kts 162°
2026-05-06 08:56 56.09729 7.91119 36950 ft 410 kts 162°
2026-05-06 08:56 56.04436 7.95079 36953 ft 418 kts 162°
2026-05-06 08:57 55.99101 7.99069 36944 ft 416 kts 162°
2026-05-06 08:57 55.93766 8.03059 36944 ft 415 kts 162°
2026-05-06 08:58 55.88467 8.07007 36944 ft 416 kts 162°
2026-05-06 08:58 55.83133 8.10966 36941 ft 415 kts 162°
2026-05-06 08:59 55.77840 8.14883 36941 ft 415 kts 162°
2026-05-06 08:59 55.72511 8.18815 36938 ft 414 kts 162°
2026-05-06 09:00 55.67236 8.22696 36937 ft 414 kts 162°
2026-05-06 09:00 55.61927 8.26589 36931 ft 413 kts 162°
2026-05-06 09:01 55.56617 8.30474 36934 ft 414 kts 162°
2026-05-06 09:01 55.51330 8.34326 36937 ft 413 kts 161°
2026-05-06 09:02 55.45997 8.38203 36946 ft 413 kts 161°
2026-05-06 09:02 55.40698 8.42044 36948 ft 413 kts 162°
2026-05-06 09:03 55.35418 8.45860 36949 ft 412 kts 162°
2026-05-06 09:03 55.30130 8.49670 36943 ft 412 kts 162°
2026-05-06 09:04 55.24843 8.53468 36941 ft 412 kts 161°
2026-05-06 09:04 55.19530 8.57274 36938 ft 412 kts 161°
2026-05-06 09:05 55.14270 8.61034 36935 ft 411 kts 161°
2026-05-06 09:05 55.08984 8.64797 36936 ft 412 kts 161°
2026-05-06 09:06 55.03701 8.68549 36928 ft 410 kts 162°
2026-05-06 09:06 54.98389 8.72315 36927 ft 410 kts 162°
2026-05-06 09:07 54.93041 8.76094 36926 ft 411 kts 162°
2026-05-06 09:07 54.87958 8.79580 36916 ft 409 kts 164°
2026-05-06 09:08 54.82541 8.82583 36907 ft 408 kts 167°
2026-05-06 09:08 54.77127 8.85366 36898 ft 408 kts 166°
2026-05-06 09:09 54.71720 8.88177 36900 ft 407 kts 166°
2026-05-06 09:09 54.66344 8.91013 36900 ft 407 kts 166°
2026-05-06 09:10 54.60927 8.93893 36893 ft 405 kts 166°
2026-05-06 09:10 54.55557 8.96756 36894 ft 405 kts 166°
2026-05-06 09:11 54.50177 8.99616 37203 ft 406 kts 166°
2026-05-06 09:11 54.47479 9.01047 37016 ft 408 kts 166°
2026-05-06 09:11 54.44797 9.02471 36903 ft 400 kts 165°
2026-05-06 09:12 54.39531 9.05262 36886 ft 399 kts 165°
2026-05-06 09:12 54.34211 9.08062 36881 ft 403 kts 165°
2026-05-06 09:13 54.28897 9.10857 36883 ft 402 kts 165°
2026-05-06 09:13 54.23568 9.13651 36879 ft 401 kts 165°
2026-05-06 09:14 54.18278 9.16420 36877 ft 399 kts 165°
2026-05-06 09:14 54.12985 9.19183 36871 ft 400 kts 165°
2026-05-06 09:15 54.07666 9.21950 36871 ft 398 kts 165°
2026-05-06 09:15 54.02385 9.24692 36864 ft 399 kts 164°
2026-05-06 09:16 53.97053 9.27453 36863 ft 400 kts 164°
2026-05-06 09:16 53.91772 9.30179 36860 ft 400 kts 164°
2026-05-06 09:17 53.86424 9.32935 36855 ft 401 kts 164°
2026-05-06 09:17 53.81133 9.35653 36852 ft 402 kts 164°
2026-05-06 09:18 53.75762 9.38404 36851 ft 402 kts 164°
2026-05-06 09:18 53.70435 9.41126 36848 ft 403 kts 164°
2026-05-06 09:19 53.65060 9.43865 36838 ft 403 kts 164°
2026-05-06 09:19 53.59734 9.46570 36834 ft 403 kts 164°
2026-05-06 09:20 53.54404 9.49269 36835 ft 404 kts 164°
2026-05-06 09:20 53.49028 9.51986 36832 ft 404 kts 164°
2026-05-06 09:21 53.43663 9.54690 36822 ft 405 kts 164°
2026-05-06 09:21 53.38248 9.57413 36829 ft 407 kts 164°
2026-05-06 09:22 53.32863 9.60115 36824 ft 406 kts 164°
2026-05-06 09:22 53.27464 9.62815 36818 ft 407 kts 164°
2026-05-06 09:23 53.22068 9.65504 36813 ft 406 kts 165°
2026-05-06 09:23 53.16646 9.68201 36812 ft 407 kts 165°
2026-05-06 09:24 53.11251 9.70880 36815 ft 408 kts 165°
2026-05-06 09:24 53.05809 9.73576 36815 ft 408 kts 165°
2026-05-06 09:25 53.00408 9.76242 36806 ft 409 kts 165°
2026-05-06 09:25 52.94952 9.78928 36805 ft 410 kts 165°
2026-05-06 09:26 52.89493 9.81609 36811 ft 410 kts 165°
2026-05-06 09:26 52.84043 9.84279 36803 ft 410 kts 165°
2026-05-06 09:27 52.78581 9.86947 36806 ft 410 kts 165°
2026-05-06 09:27 52.73106 9.89612 36813 ft 410 kts 165°
2026-05-06 09:28 52.67645 9.92266 36805 ft 411 kts 165°
2026-05-06 09:28 52.62207 9.94901 36804 ft 411 kts 165°
2026-05-06 09:29 52.56726 9.97549 36800 ft 412 kts 165°
2026-05-06 09:29 52.51216 10.00206 36791 ft 413 kts 165°
2026-05-06 09:30 52.45777 10.02820 36795 ft 412 kts 165°
2026-05-06 09:30 52.40303 10.05444 36784 ft 413 kts 165°
2026-05-06 09:31 52.34853 10.08050 36773 ft 413 kts 165°
2026-05-06 09:31 52.29376 10.10664 36771 ft 413 kts 165°
2026-05-06 09:32 52.23876 10.13281 36762 ft 412 kts 165°
2026-05-06 09:32 52.18422 10.15869 36760 ft 413 kts 165°
2026-05-06 09:33 52.12896 10.18485 36754 ft 413 kts 165°
2026-05-06 09:33 52.07409 10.21076 36751 ft 415 kts 165°
2026-05-06 09:34 52.01865 10.23689 36753 ft 415 kts 165°
2026-05-06 09:34 51.96517 10.26200 36755 ft 415 kts 165°
2026-05-06 09:35 51.90976 10.28796 36755 ft 415 kts 166°
2026-05-06 09:35 51.85461 10.31374 36753 ft 415 kts 166°
2026-05-06 09:36 51.79935 10.33950 36747 ft 414 kts 166°
2026-05-06 09:36 51.74388 10.36528 36739 ft 414 kts 166°
2026-05-06 09:37 51.68905 10.39072 36734 ft 414 kts 166°
2026-05-06 09:37 51.63369 10.41633 36740 ft 414 kts 166°
2026-05-06 09:38 51.57861 10.44175 36744 ft 414 kts 166°
2026-05-06 09:38 51.52348 10.46713 36748 ft 413 kts 166°
2026-05-06 09:39 51.46847 10.49237 36743 ft 414 kts 166°
2026-05-06 09:39 51.41310 10.51835 36743 ft 414 kts 165°
2026-05-06 09:40 51.35838 10.54576 36742 ft 414 kts 165°
2026-05-06 09:40 51.27641 10.58709 36748 ft 414 kts 165°
2026-05-06 09:41 51.22149 10.61449 36745 ft 415 kts 165°
2026-05-06 09:41 51.16662 10.64171 36744 ft 413 kts 165°
2026-05-06 09:42 51.11206 10.66867 36744 ft 412 kts 166°
2026-05-06 09:42 51.05730 10.69565 36749 ft 413 kts 166°
2026-05-06 09:43 51.00296 10.72236 36753 ft 414 kts 166°
2026-05-06 09:43 50.94814 10.74924 36765 ft 413 kts 166°
2026-05-06 09:44 50.89365 10.77590 36772 ft 413 kts 166°
2026-05-06 09:44 50.83905 10.80253 36775 ft 413 kts 166°
2026-05-06 09:45 50.78445 10.82907 36774 ft 414 kts 166°
2026-05-06 09:45 50.73013 10.85545 36765 ft 412 kts 166°
2026-05-06 09:46 50.67548 10.88190 36757 ft 413 kts 166°
2026-05-06 09:46 50.62090 10.90826 36759 ft 411 kts 166°
2026-05-06 09:47 50.56698 10.93425 36864 ft 411 kts 166°
2026-05-06 09:47 50.51218 10.96056 36739 ft 412 kts 166°
2026-05-06 09:48 50.45804 10.98652 36762 ft 413 kts 167°
2026-05-06 09:48 50.40298 11.01288 36766 ft 413 kts 166°
2026-05-06 09:49 50.34864 11.03881 36766 ft 413 kts 167°
2026-05-06 09:49 50.29433 11.06467 36767 ft 411 kts 167°
2026-05-06 09:50 50.23988 11.09051 36772 ft 411 kts 167°
2026-05-06 09:50 50.18521 11.11641 36776 ft 410 kts 167°
2026-05-06 09:51 50.13115 11.14196 36778 ft 411 kts 167°
2026-05-06 09:51 50.07656 11.16770 36775 ft 410 kts 167°
2026-05-06 09:52 50.02211 11.19331 36778 ft 411 kts 167°
2026-05-06 09:52 49.96753 11.21895 36780 ft 410 kts 167°
2026-05-06 09:53 49.91370 11.24414 36786 ft 410 kts 167°
2026-05-06 09:53 49.85913 11.26961 36796 ft 411 kts 167°
2026-05-06 09:54 49.80489 11.29490 36799 ft 411 kts 167°
2026-05-06 09:54 49.75074 11.32008 36800 ft 409 kts 167°
2026-05-06 09:55 49.69637 11.34530 36801 ft 409 kts 167°
2026-05-06 09:55 49.64191 11.37048 36799 ft 409 kts 167°
2026-05-06 09:56 49.58791 11.39530 36790 ft 407 kts 168°
2026-05-06 09:56 49.53292 11.41343 36788 ft 404 kts 176°
2026-05-06 09:57 49.47750 11.42358 36784 ft 403 kts 178°
2026-05-06 09:57 49.42253 11.43221 36783 ft 402 kts 178°
2026-05-06 09:58 49.36800 11.44092 36779 ft 403 kts 178°
2026-05-06 09:58 49.31324 11.44997 36782 ft 403 kts 178°
2026-05-06 09:59 49.25865 11.45913 36782 ft 403 kts 178°
2026-05-06 09:59 49.20319 11.46850 36788 ft 402 kts 178°
2026-05-06 10:00 49.14856 11.47773 36783 ft 402 kts 178°
2026-05-06 10:00 49.09342 11.48704 36781 ft 401 kts 178°
2026-05-06 10:01 49.03874 11.49625 36787 ft 401 kts 178°
2026-05-06 10:01 48.98394 11.50546 36791 ft 400 kts 178°
2026-05-06 10:02 48.92915 11.51465 36795 ft 400 kts 178°
2026-05-06 10:02 48.87595 11.52353 36805 ft 401 kts 178°
2026-05-06 10:03 48.82130 11.53264 36813 ft 401 kts 178°
2026-05-06 10:03 48.76699 11.54170 36805 ft 399 kts 178°
2026-05-06 10:04 48.71331 11.55063 36802 ft 399 kts 178°
2026-05-06 10:04 48.65975 11.55950 36798 ft 401 kts 178°
2026-05-06 10:05 48.60519 11.56856 36805 ft 397 kts 178°
2026-05-06 10:05 48.55096 11.57752 36797 ft 397 kts 178°
2026-05-06 10:06 48.49647 11.58648 36804 ft 397 kts 178°
2026-05-06 10:06 48.44299 11.59529 36809 ft 397 kts 178°
2026-05-06 10:07 48.38869 11.60420 36801 ft 397 kts 178°
2026-05-06 10:07 48.33469 11.61305 36796 ft 396 kts 178°
2026-05-06 10:08 48.28056 11.62189 36804 ft 396 kts 178°
2026-05-06 10:08 48.22655 11.63069 36800 ft 395 kts 178°
2026-05-06 10:09 48.17240 11.63951 36805 ft 395 kts 178°
2026-05-06 10:09 48.11917 11.64814 36789 ft 394 kts 178°
2026-05-06 10:10 48.06621 11.65670 36805 ft 394 kts 179°
2026-05-06 10:10 48.01265 11.66537 36798 ft 394 kts 179°
2026-05-06 10:11 47.95829 11.67414 36789 ft 394 kts 179°
2026-05-06 10:11 47.90434 11.68284 36791 ft 394 kts 179°
2026-05-06 10:12 47.85070 11.69147 36817 ft 393 kts 179°
2026-05-06 10:12 47.79776 11.69995 36825 ft 394 kts 179°
2026-05-06 10:13 47.74411 11.70853 36833 ft 392 kts 179°
2026-05-06 10:13 47.69025 11.71709 36828 ft 393 kts 179°
2026-05-06 10:14 47.63604 11.72573 36836 ft 393 kts 179°
2026-05-06 10:14 47.58275 11.73421 36834 ft 393 kts 179°
2026-05-06 10:15 47.52842 11.74283 36860 ft 394 kts 179°
2026-05-06 10:15 47.47377 11.75151 36867 ft 393 kts 180°
2026-05-06 10:16 47.41945 11.76010 36869 ft 395 kts 179°
2026-05-06 10:16 47.36497 11.76835 36871 ft 393 kts 181°
2026-05-06 10:17 47.31075 11.76909 36879 ft 390 kts 187°
2026-05-06 10:17 47.25666 11.76538 36877 ft 387 kts 188°
2026-05-06 10:18 47.20312 11.76162 36876 ft 387 kts 188°
2026-05-06 10:18 47.14939 11.75824 36884 ft 388 kts 188°
2026-05-06 10:19 47.09551 11.75511 36887 ft 387 kts 187°
2026-05-06 10:19 47.04180 11.75221 36888 ft 388 kts 188°
2026-05-06 10:20 46.98804 11.74935 36889 ft 386 kts 188°
2026-05-06 10:20 46.93429 11.74639 36892 ft 388 kts 188°
2026-05-06 10:21 46.88104 11.74345 36906 ft 388 kts 187°
2026-05-06 10:21 46.82796 11.74054 36927 ft 389 kts 188°
2026-05-06 10:22 46.77419 11.73760 36929 ft 388 kts 187°
2026-05-06 10:22 46.72096 11.73473 36926 ft 387 kts 188°
2026-05-06 10:23 46.66706 11.73181 36929 ft 388 kts 188°
2026-05-06 10:23 46.61348 11.72891 36917 ft 387 kts 188°
2026-05-06 10:24 46.56011 11.72867 36919 ft 389 kts 185°
2026-05-06 10:24 46.50712 11.73114 36920 ft 389 kts 184°
2026-05-06 10:25 46.45464 11.73366 36921 ft 386 kts 185°
2026-05-06 10:25 46.40279 11.73578 36926 ft 388 kts 185°
2026-05-06 10:26 46.34869 11.73780 36923 ft 389 kts 185°
2026-05-06 10:26 46.29523 11.73974 36923 ft 385 kts 185°
2026-05-06 10:27 46.24151 11.74165 36920 ft 386 kts 185°
2026-05-06 10:27 46.18811 11.74353 36919 ft 386 kts 185°
2026-05-06 10:28 46.13461 11.74539 36918 ft 385 kts 185°
2026-05-06 10:28 46.08162 11.74724 36916 ft 385 kts 185°
2026-05-06 10:29 46.02824 11.74911 36911 ft 385 kts 185°
2026-05-06 10:29 45.97485 11.75099 36910 ft 383 kts 185°
2026-05-06 10:30 45.92126 11.75285 36919 ft 385 kts 185°
2026-05-06 10:30 45.86755 11.75470 36896 ft 384 kts 185°
2026-05-06 10:31 45.81460 11.75655 36914 ft 383 kts 185°
2026-05-06 10:31 45.76116 11.75840 36914 ft 384 kts 185°
2026-05-06 10:32 45.70819 11.76023 36907 ft 382 kts 185°
2026-05-06 10:32 45.65501 11.76206 36907 ft 382 kts 185°
2026-05-06 10:33 45.60181 11.76391 36909 ft 382 kts 185°
2026-05-06 10:33 45.54934 11.76568 36908 ft 383 kts 185°
2026-05-06 10:34 45.49586 11.76752 36908 ft 384 kts 185°
2026-05-06 10:34 45.44332 11.76932 36905 ft 385 kts 185°
2026-05-06 10:35 45.38972 11.77114 36899 ft 385 kts 185°
2026-05-06 10:35 45.33664 11.77298 36893 ft 382 kts 185°
2026-05-06 10:36 45.28344 11.77478 36894 ft 383 kts 185°
2026-05-06 10:36 45.23031 11.77659 36891 ft 383 kts 185°
2026-05-06 10:37 45.17681 11.77839 36882 ft 384 kts 185°
2026-05-06 10:37 45.12379 11.78020 36884 ft 383 kts 185°
2026-05-06 10:38 45.07061 11.78199 36878 ft 384 kts 185°
2026-05-06 10:38 45.01749 11.78379 36871 ft 382 kts 185°
2026-05-06 10:39 44.96432 11.78558 36869 ft 383 kts 185°
2026-05-06 10:39 44.91092 11.78737 36873 ft 382 kts 185°
2026-05-06 10:40 44.85748 11.78916 36882 ft 384 kts 185°
2026-05-06 10:40 44.80439 11.79092 36887 ft 384 kts 185°
2026-05-06 10:41 44.75132 11.79270 36889 ft 384 kts 184°
2026-05-06 10:41 44.69850 11.79448 36891 ft 383 kts 185°
2026-05-06 10:42 44.64489 11.79625 36894 ft 386 kts 185°
2026-05-06 10:42 44.59182 11.79800 36893 ft 385 kts 184°
2026-05-06 10:43 44.53837 11.79978 36895 ft 386 kts 184°
2026-05-06 10:44 44.45807 11.80245 36899 ft 385 kts 184°
2026-05-06 10:44 44.40483 11.80421 36895 ft 386 kts 184°
2026-05-06 10:45 44.35131 11.80598 36901 ft 385 kts 184°
2026-05-06 10:45 44.29814 11.80771 36904 ft 386 kts 184°
2026-05-06 10:46 44.24482 11.80946 36909 ft 386 kts 184°
2026-05-06 10:46 44.19134 11.81120 36916 ft 386 kts 184°
2026-05-06 10:47 44.13778 11.81294 36913 ft 386 kts 184°
2026-05-06 10:47 44.08429 11.81466 36910 ft 388 kts 184°
2026-05-06 10:48 44.03105 11.81639 36908 ft 388 kts 184°
2026-05-06 10:48 43.97746 11.81815 36908 ft 387 kts 184°
2026-05-06 10:49 43.92433 11.81989 36907 ft 387 kts 184°
2026-05-06 10:49 43.87094 11.82162 36910 ft 388 kts 184°
2026-05-06 10:50 43.81750 11.82334 36911 ft 388 kts 184°
2026-05-06 10:50 43.76366 11.82873 36910 ft 392 kts 177°
2026-05-06 10:51 43.71030 11.84370 36909 ft 395 kts 173°
2026-05-06 10:51 43.65688 11.86154 36782 ft 396 kts 173°
2026-05-06 10:51 43.63047 11.87039 36411 ft 392 kts 173°
2026-05-06 10:52 43.60426 11.87906 35936 ft 390 kts 173°
2026-05-06 10:52 43.57792 11.88766 35353 ft 390 kts 173°
2026-05-06 10:52 43.55178 11.89608 34759 ft 391 kts 173°
2026-05-06 10:52 43.52535 11.90454 34346 ft 385 kts 174°
2026-05-06 10:53 43.49939 11.91285 34061 ft 382 kts 174°
2026-05-06 10:53 43.47359 11.92104 33672 ft 384 kts 174°
2026-05-06 10:53 43.44756 11.92929 33196 ft 380 kts 174°
2026-05-06 10:53 43.42205 11.93739 32724 ft 376 kts 174°
2026-05-06 10:54 43.39674 11.94542 32242 ft 372 kts 174°
2026-05-06 10:54 43.37173 11.95336 31778 ft 368 kts 174°
2026-05-06 10:54 43.34716 11.96112 31312 ft 364 kts 174°
2026-05-06 10:54 43.32264 11.96886 30855 ft 363 kts 174°
2026-05-06 10:55 43.29759 11.97668 30380 ft 368 kts 174°
2026-05-06 10:55 43.27291 11.98439 29919 ft 366 kts 174°
2026-05-06 10:55 43.24797 11.99226 29450 ft 363 kts 174°
2026-05-06 10:55 43.22364 11.99996 28987 ft 359 kts 174°
2026-05-06 10:56 43.19949 12.00758 28526 ft 356 kts 174°
2026-05-06 10:56 43.17547 12.01512 28074 ft 352 kts 174°
2026-05-06 10:56 43.15163 12.02261 27617 ft 349 kts 173°
2026-05-06 10:56 43.12826 12.02993 27167 ft 346 kts 174°
2026-05-06 10:57 43.10486 12.03725 26724 ft 343 kts 173°
2026-05-06 10:57 43.08156 12.04453 26280 ft 341 kts 173°
2026-05-06 10:57 43.05844 12.05171 25839 ft 347 kts 173°
2026-05-06 10:57 43.03468 12.05907 25379 ft 346 kts 173°
2026-05-06 10:58 43.01130 12.06635 24928 ft 343 kts 172°
2026-05-06 10:58 42.98833 12.07354 24480 ft 340 kts 173°
2026-05-06 10:58 42.96532 12.08075 24031 ft 336 kts 172°
2026-05-06 10:58 42.94291 12.08775 23619 ft 332 kts 172°
2026-05-06 10:59 42.92023 12.09482 23175 ft 329 kts 172°
2026-05-06 10:59 42.89804 12.10172 22752 ft 329 kts 172°
2026-05-06 10:59 42.87534 12.10873 22322 ft 334 kts 172°
2026-05-06 10:59 42.85281 12.11570 21888 ft 331 kts 172°
2026-05-06 11:00 42.83060 12.12260 21462 ft 328 kts 172°
2026-05-06 11:00 42.80846 12.12949 21040 ft 324 kts 172°
2026-05-06 11:00 42.78672 12.13625 20623 ft 322 kts 172°
2026-05-06 11:00 42.76473 12.14307 20195 ft 319 kts 172°
2026-05-06 11:01 42.74336 12.14970 19789 ft 316 kts 172°
2026-05-06 11:01 42.72206 12.15640 19376 ft 313 kts 170°
2026-05-06 11:01 42.70103 12.16475 19009 ft 320 kts 164°
2026-05-06 11:01 42.68037 12.17589 18781 ft 314 kts 167°
2026-05-06 11:02 42.65930 12.17911 17955 ft 305 kts 192°
2026-05-06 11:02 42.63942 12.17089 17193 ft 300 kts 205°
2026-05-06 11:02 42.62039 12.16004 16436 ft 298 kts 203°
2026-05-06 11:02 42.60084 12.15086 15707 ft 296 kts 199°
2026-05-06 11:03 42.58098 12.14378 15019 ft 293 kts 196°
2026-05-06 11:03 42.56145 12.13809 14313 ft 290 kts 195°
2026-05-06 11:03 42.54178 12.13281 13616 ft 287 kts 195°
2026-05-06 11:03 42.52231 12.12760 12908 ft 285 kts 195°
2026-05-06 11:04 42.50308 12.12238 12291 ft 279 kts 195°
2026-05-06 11:04 42.48421 12.11726 11825 ft 270 kts 195°
2026-05-06 11:04 42.46594 12.11226 11211 ft 268 kts 195°
2026-05-06 11:04 42.44791 12.10726 10601 ft 265 kts 195°
2026-05-06 11:05 42.42996 12.10228 10110 ft 259 kts 195°
2026-05-06 11:05 42.41273 12.09754 9755 ft 249 kts 195°
2026-05-06 11:05 42.39611 12.09329 9419 ft 240 kts 191°
2026-05-06 11:05 42.37955 12.09332 9114 ft 236 kts 173°
2026-05-06 11:06 42.36411 12.09960 8775 ft 234 kts 165°
2026-05-06 11:06 42.34882 12.10720 8338 ft 232 kts 165°
2026-05-06 11:06 42.33367 12.11426 7923 ft 229 kts 167°
2026-05-06 11:06 42.31855 12.12084 7498 ft 228 kts 167°
2026-05-06 11:07 42.30368 12.12716 7230 ft 222 kts 167°
2026-05-06 11:07 42.28886 12.13340 6943 ft 222 kts 167°
2026-05-06 11:07 42.27423 12.13959 6705 ft 219 kts 167°
2026-05-06 11:07 42.25981 12.14571 6472 ft 217 kts 166°
2026-05-06 11:08 42.24523 12.15186 6230 ft 222 kts 166°
2026-05-06 11:08 42.23040 12.15809 5986 ft 220 kts 166°
2026-05-06 11:08 42.21598 12.16418 5773 ft 217 kts 166°
2026-05-06 11:08 42.20156 12.17026 5462 ft 217 kts 165°
2026-05-06 11:09 42.18717 12.17633 5195 ft 216 kts 165°
2026-05-06 11:09 42.17292 12.18237 4860 ft 219 kts 164°
2026-05-06 11:09 42.15811 12.18856 4439 ft 224 kts 166°
2026-05-06 11:09 42.14275 12.19134 4116 ft 223 kts 185°
2026-05-06 11:10 42.12773 12.18710 3858 ft 220 kts 194°
2026-05-06 11:10 42.11302 12.18157 3601 ft 218 kts 193°
2026-05-06 11:10 42.09831 12.17666 3352 ft 216 kts 191°
2026-05-06 11:10 42.08382 12.17223 3154 ft 211 kts 190°
2026-05-06 11:11 42.06944 12.16879 2977 ft 203 kts 181°
2026-05-06 11:11 42.05633 12.17150 2954 ft 182 kts 158°
2026-05-06 11:11 42.04476 12.17797 2982 ft 179 kts 159°
2026-05-06 11:11 42.03315 12.18322 2978 ft 177 kts 162°
2026-05-06 11:12 42.02128 12.18816 2976 ft 177 kts 162°
2026-05-06 11:12 42.00967 12.19302 2970 ft 175 kts 162°
2026-05-06 11:12 41.99837 12.19779 2893 ft 158 kts 162°
2026-05-06 11:12 41.98825 12.20203 2731 ft 147 kts 162°
2026-05-06 11:13 41.97862 12.20607 2615 ft 144 kts 162°
2026-05-06 11:13 41.96910 12.21007 2537 ft 145 kts 162°
2026-05-06 11:13 41.95935 12.21413 2327 ft 144 kts 162°
2026-05-06 11:13 41.94999 12.21807 2143 ft 142 kts 161°
2026-05-06 11:14 41.94052 12.22203 1942 ft 142 kts 161°
2026-05-06 11:14 41.93095 12.22604 1757 ft 143 kts 161°
2026-05-06 11:14 41.92164 12.22996 1572 ft 142 kts 162°
2026-05-06 11:14 41.91212 12.23392 1378 ft 141 kts 161°
2026-05-06 11:15 41.90295 12.23774 1235 ft 139 kts 162°
2026-05-06 11:15 41.89382 12.24155 997 ft 134 kts 161°
2026-05-06 11:15 41.88495 12.24524 840 ft 135 kts 161°
2026-05-06 11:15 41.87601 12.24898 661 ft 135 kts 161°
2026-05-06 11:16 41.86705 12.25271 483 ft 135 kts 163°
2026-05-06 11:16 41.85797 12.25653 316 ft 139 kts 161°
2026-05-06 11:16 41.84881 12.26055 166 ft 137 kts 165°
2026-05-06 11:16 41.83969 12.26424 34 ft 132 kts 166°
2026-05-06 11:17 41.83108 12.26782 25 ft 137 kts 163°
2026-05-06 11:17 41.82391 12.27084 25 ft 58 kts 163°
2026-05-06 11:17 41.82177 12.27151 24 ft 26 kts 178°
2026-05-06 11:17 41.82081 12.27148 24 ft 9 kts 184°
2026-05-06 11:18 41.82015 12.27132 24 ft 9 kts 192°
2026-05-06 11:18 41.81952 12.27113 24 ft 9 kts 191°
2026-05-06 11:18 41.81887 12.27096 24 ft 9 kts 193°
2026-05-06 11:18 41.81822 12.27075 24 ft 11 kts 194°
2026-05-06 11:19 41.81697 12.27058 24 ft 24 kts 171°
2026-05-06 11:19 41.81520 12.27125 24 ft 26 kts 162°
2026-05-06 11:19 41.81353 12.27195 24 ft 21 kts 162°
2026-05-06 11:19 41.81218 12.27251 24 ft 18 kts 162°
2026-05-06 11:20 41.81098 12.27296 24 ft 15 kts 177°
2026-05-06 11:20 41.81020 12.27214 24 ft 12 kts 204°
2026-05-06 11:20 41.80934 12.27230 24 ft 12 kts 168°
2026-05-06 11:20 41.80848 12.27216 24 ft 12 kts 192°
2026-05-06 11:21 41.80783 12.27149 24 ft 12 kts 245°
2026-05-06 11:21 41.80752 12.27044 24 ft 12 kts 249°
2026-05-06 11:21 41.80718 12.26924 24 ft 18 kts 249°
2026-05-06 11:21 41.80669 12.26745 24 ft 20 kts 248°
2026-05-06 11:22 41.80621 12.26568 24 ft 17 kts 250°
2026-05-06 11:22 41.80577 12.26414 24 ft 17 kts 248°
2026-05-06 11:22 41.80535 12.26259 24 ft 17 kts 250°
2026-05-06 11:22 41.80494 12.26109 24 ft 17 kts 249°
2026-05-06 11:23 41.80453 12.25962 24 ft 16 kts 249°
2026-05-06 11:23 41.80413 12.25818 24 ft 16 kts 249°
2026-05-06 11:23 41.80375 12.25679 24 ft 16 kts 248°
2026-05-06 11:23 41.80344 12.25563 24 ft 10 kts 249°
2026-05-06 11:24 41.80311 12.25472 24 ft 9 kts 224°
2026-05-06 11:24 41.80253 12.25437 24 ft 10 kts 200°
2026-05-06 11:24 41.80153 12.25386 24 ft 12 kts 202°
2026-05-06 11:24 41.80080 12.25350 24 ft 8 kts 200°
2026-05-06 11:25 41.80034 12.25351 24 ft 5 kts 147°
2026-05-06 11:25 41.80010 12.25366 24 ft 1 kts 186°
2026-05-06 11:25 41.80003 12.25363 24 ft 0 kts 201°
2026-05-06 11:25 41.79999 12.25361 24 ft 4 kts 202°
2026-05-06 11:26 41.79964 12.25341 24 ft 2 kts 204°
2026-05-06 11:26 41.79955 12.25335 24 ft 0 kts 205°
2026-05-06 11:26 41.79949 12.25332 24 ft 0 kts 205°